[[{"header":{"parameterUnit":"m.s-1","parameterCategory":1,"la1":30.2991,"la2":30.254,"lo1":-89.0895,"lo2":-89.0444,"dy":0.0017,"dx":0.0017,"nx":28,"ny":28,"refTime":"2025-07-25T09:00:00:Z","depth":0,"parameterNumber":2,"parameterNumberName":"U-component_of_WINDS"},"data":[0,0,0,0,0,0,0,0,0,0,0,0,0,0,0,0,0,0,0,0,0,0,0,0,0,0,0,0,0,0,0,0,0,0,0,0,0,0,0,0,0,0,0,0,0,0,0,0,0,0,0,0,0,0,0,0,0,0,-1.4601,-1.46,0,-1.4545,-1.4544,-1.4543,-1.4484,-1.4483,-1.4482,-1.4481,-1.4423,-1.4422,-1.4421,0,0,0,0,0,0,0,0,0,0,0,0,0,-1.4656,-1.4655,-1.4601,-1.46,-1.46,-1.4545,-1.4544,-1.4543,-1.4484,-1.4483,-1.4482,-1.4481,-1.4423,-1.4422,-1.4421,0,0,0,0,0,0,0,0,0,0,0,0,0,-1.4619,-1.4655,-1.4601,-1.4563,-1.4559,-1.4545,-1.4544,-1.4543,-1.4484,-1.4483,-1.4482,-1.448,-1.4423,-1.4422,-1.4421,-1.4439,0,0,-1.4417,-1.4417,0,0,0,0,0,0,0,0,-1.4621,-1.4617,-1.457,-1.4566,-1.4561,-1.452,-1.4542,-1.4508,-1.4484,-1.4513,-1.4481,-1.448,-1.4456,-1.4452,-1.4444,-1.4436,-1.4434,-1.4417,-1.4417,-1.4416,-1.4416,0,0,0,0,0,0,0,-1.4624,-1.4619,-1.4579,-1.4569,-1.4564,-1.4549,-1.4542,-1.4535,-1.4492,-1.451,-1.4506,-1.45,-1.4454,-1.4446,-1.4442,-1.4433,-1.4417,-1.4416,-1.4416,-1.4415,-1.4437,-1.4438,0,0,0,0,0,0,-1.4632,-1.4622,-1.458,-1.4577,-1.4589,-1.4549,-1.4542,-1.4535,-1.4492,-1.4484,-1.4501,-1.4497,-1.4448,-1.4444,-1.444,-1.4458,-1.4416,-1.4415,-1.4414,-1.4435,-1.4437,-1.4438,0,0,0,0,0,0,-1.4634,-1.4629,-1.4583,-1.4598,-1.4591,-1.4549,-1.4542,-1.4534,-1.4526,-1.4485,-1.4477,-1.4501,-1.4447,-1.4442,-1.444,-1.4455,-1.4414,-1.4413,-1.4434,-1.4436,-1.4437,-1.4495,0,0,0,0,0,0,-1.4636,-1.463,-1.4637,-1.4599,-1.4591,-1.4584,-1.4543,-1.4534,-1.4524,-1.4519,-1.4483,-1.4476,-1.4446,-1.4442,-1.4439,-1.4453,-1.4412,-1.4432,-1.4435,-1.4437,-1.4491,-1.4499,-1.4505,0,0,0,0,0,-1.4638,-1.4655,-1.4637,-1.4633,-1.4598,-1.4585,-1.458,-1.4545,-1.4526,-1.4532,-1.4506,-1.4477,-1.4454,-1.4442,-1.4438,-1.4452,-1.4431,-1.4434,-1.4437,-1.4488,-1.4497,-1.4505,0,0,0,0,0,0,-1.4695,-1.4649,-1.4629,-1.4635,-1.4614,-1.4575,-1.4581,-1.4556,-1.454,-1.4536,-1.4493,-1.4485,-1.4488,-1.447,-1.4457,-1.4467,-1.4439,-1.4441,-1.4479,-1.4487,-1.4494,-1.4498,-1.4412,0,0,0,0,0,-1.4709,-1.4702,-1.4662,-1.4671,-1.4661,-1.4623,-1.4616,-1.4592,-1.4568,-1.4559,-1.4533,-1.4511,-1.4499,-1.4492,-1.4479,-1.4489,-1.448,-1.4496,-1.4503,-1.4509,-1.4511,-1.4515,-1.4522,-1.4448,-1.4448,-1.4447,0,0,-1.4736,-1.471,-1.4708,-1.4681,-1.4663,-1.4657,-1.4616,-1.4612,-1.4607,-1.4558,-1.4555,-1.4535,-1.4508,-1.4512,-1.4512,-1.4497,-1.453,-1.4512,-1.4517,-1.4516,-1.4518,-1.4526,-1.4532,-1.445,-1.4449,-1.4449,0,0,-1.4783,-1.4763,-1.4768,-1.475,-1.4722,-1.4696,-1.4698,-1.4662,-1.4647,-1.4643,-1.4607,-1.46,-1.4581,-1.4563,-1.4552,-1.4592,-1.4565,-1.4589,-1.4624,-1.4628,-1.4634,-1.4639,-1.4653,-1.4659,-1.4592,-1.4592,-1.4592,0,-1.482,-1.481,-1.4773,-1.4771,-1.476,-1.4717,-1.4721,-1.4706,-1.4675,-1.4668,-1.4651,-1.4626,-1.4605,-1.4604,-1.4614,-1.4606,-1.4606,-1.4593,-1.4636,-1.464,-1.4644,-1.4658,-1.4663,-1.4595,-1.4595,-1.4594,-1.4594,0,-1.4857,-1.4851,-1.4858,-1.483,-1.482,-1.4821,-1.4785,-1.4779,-1.4755,-1.4732,-1.4728,-1.4701,-1.4682,-1.468,-1.4656,-1.4676,-1.4667,-1.4644,-1.4614,-1.4655,-1.4667,-1.4672,-1.4599,-1.4598,-1.4597,-1.4597,0,0,-1.4939,-1.489,-1.4894,-1.4881,-1.4847,-1.4841,-1.484,-1.4822,-1.4817,-1.4798,-1.4796,-1.4781,-1.4759,-1.4746,-1.472,-1.4724,-1.4758,-1.47,-1.4698,-1.4711,-1.4778,-1.4795,-1.4802,-1.474,-1.474,-1.4741,-1.478,0,-1.498,-1.4976,-1.4943,-1.4948,-1.4942,-1.4901,-1.49,-1.4879,-1.4857,-1.4848,-1.4824,-1.4813,-1.4785,-1.4777,-1.4779,-1.4753,-1.477,-1.475,-1.4737,-1.4737,-1.4745,-1.4808,-1.4827,-1.4865,-1.4784,-1.4785,-1.4785,0,-1.5027,-1.501,-1.5016,-1.4982,-1.4978,-1.4978,-1.4958,-1.495,-1.4926,-1.4909,-1.4896,-1.4867,-1.4863,-1.4835,-1.483,-1.4817,-1.481,-1.4796,-1.4797,-1.4794,-1.4764,-1.4807,-1.4876,-1.4882,-1.4792,-1.4792,-1.4791,0,-1.5086,-1.5065,-1.5065,-1.5055,-1.5016,-1.5017,-1.5,-1.4975,-1.4966,-1.4949,-1.4942,-1.4925,-1.4915,-1.4903,-1.487,-1.4852,-1.4868,-1.4837,-1.4854,-1.4855,-1.4859,-1.4859,-1.4928,-1.4855,-1.4855,-1.4855,-1.4855,0,-1.5135,-1.514,-1.5091,-1.5091,-1.5095,-1.5057,-1.5062,-1.5042,-1.502,-1.5015,-1.4978,-1.4975,-1.4932,-1.4923,-1.4897,-1.4897,-1.4893,-1.4879,-1.4872,-1.4882,-1.4884,-1.4877,-1.4874,-1.4856,-1.4856,-1.4856,-1.4855,0,-1.5201,-1.5169,-1.5167,-1.513,-1.5121,-1.5125,-1.5094,-1.5092,-1.5068,-1.5063,-1.5059,-1.5022,-1.501,-1.4976,-1.4955,-1.4937,-1.4944,-1.4931,-1.4953,-1.4948,-1.4967,-1.4966,-1.5033,-1.504,-1.4963,-1.4964,-1.4965,0,-1.5235,-1.5238,-1.5201,-1.5196,-1.5181,-1.5172,-1.5163,-1.5126,-1.5118,-1.509,-1.5092,-1.5077,-1.5064,-1.5046,-1.5017,-1.5001,-1.4987,-1.5012,-1.4984,-1.4995,-1.4987,-1.4988,-1.4988,-1.5018,-1.5019,-1.502,-1.502,0,-1.5298,-1.5282,-1.527,-1.5253,-1.5243,-1.5228,-1.521,-1.5208,-1.5166,-1.5158,-1.5146,-1.5135,-1.5114,-1.51,-1.5079,-1.5062,-1.5034,-1.5029,-1.5032,-1.5043,-1.5055,-1.5049,-1.4969,-1.5028,-1.5027,-1.5027,-1.5026,-1.5026,-1.5349,-1.535,-1.5324,-1.5312,-1.5295,-1.528,-1.5277,-1.5252,-1.5241,-1.5222,-1.52,-1.519,-1.5165,-1.5135,-1.512,-1.5111,-1.5096,-1.5101,-1.5102,-1.5103,-1.5108,-1.5057,-1.5107,-1.5107,-1.5106,-1.5106,-1.5106,0,-1.541,-1.5392,-1.5381,-1.5358,-1.5349,-1.5324,-1.5303,-1.5297,-1.5289,-1.5268,-1.5255,-1.5241,-1.5227,-1.5197,-1.518,-1.5179,-1.5166,-1.5176,-1.5175,-1.5172,-1.5122,-1.5121,-1.5187,-1.5187,-1.5187,-1.5187,-1.5186,-1.5186,-1.5441,-1.5441,-1.5422,-1.5413,-1.5394,-1.5384,-1.5375,-1.536,-1.5343,-1.5329,-1.5317,-1.5298,-1.5273,-1.5254,-1.524,-1.5231,-1.5227,-1.5241,-1.5229,-1.5183,-1.5175,-1.5168,-1.5167,-1.5241,-1.5241,-1.5279,-1.5279,-1.5279]},{"header":{"parameterUnit":"m.s-1","parameterCategory":1,"la1":30.2991,"la2":30.254,"lo1":-89.0895,"lo2":-89.0444,"dy":0.0017,"dx":0.0017,"nx":28,"ny":28,"refTime":"2025-07-25T09:00:00:Z","depth":0,"parameterNumber":3,"parameterNumberName":"V-component_of_WINDS"},"data":[0,0,0,0,0,0,0,0,0,0,0,0,0,0,0,0,0,0,0,0,0,0,0,0,0,0,0,0,0,0,0,0,0,0,0,0,0,0,0,0,0,0,0,0,0,0,0,0,0,0,0,0,0,0,0,0,0,0,4.1465,4.1465,0,4.1444,4.1443,4.1443,4.1388,4.1387,4.1386,4.1385,4.1365,4.1365,4.1366,0,0,0,0,0,0,0,0,0,0,0,0,0,4.1461,4.1461,4.1465,4.1465,4.1465,4.1444,4.1443,4.1443,4.1389,4.1387,4.1386,4.1384,4.1365,4.1365,4.1366,0,0,0,0,0,0,0,0,0,0,0,0,0,4.1454,4.1462,4.1465,4.1435,4.1432,4.1444,4.1443,4.1443,4.1389,4.1387,4.1385,4.1384,4.1364,4.1365,4.1366,4.1406,0,0,4.1368,4.1369,0,0,0,0,0,0,0,0,4.1454,4.1454,4.144,4.1437,4.1434,4.1417,4.1434,4.1431,4.1389,4.1405,4.1385,4.1383,4.1384,4.1383,4.1383,4.1405,4.1404,4.1369,4.1369,4.1369,4.137,0,0,0,0,0,0,0,4.1455,4.1454,4.1457,4.1439,4.1436,4.1423,4.142,4.1434,4.1405,4.1404,4.14,4.1398,4.1382,4.1382,4.1382,4.1404,4.1369,4.1369,4.137,4.137,4.1459,4.1461,0,0,0,0,0,0,4.1459,4.1455,4.1457,4.1456,4.144,4.1425,4.1421,4.1424,4.1404,4.14,4.1399,4.1395,4.1381,4.1381,4.1381,4.1426,4.1369,4.137,4.1371,4.1457,4.1459,4.1461,0,0,0,0,0,0,4.1459,4.146,4.1458,4.1455,4.1453,4.1426,4.143,4.1425,4.1425,4.1401,4.1396,4.1405,4.138,4.138,4.14,4.1425,4.1371,4.1371,4.1455,4.1458,4.146,4.1518,0,0,0,0,0,0,4.146,4.146,4.1475,4.1455,4.1454,4.1478,4.1432,4.1425,4.1426,4.1421,4.1405,4.14,4.1379,4.1399,4.1401,4.1425,4.1372,4.1452,4.1456,4.1459,4.1514,4.1523,4.153,0,0,0,0,0,4.146,4.1492,4.1476,4.1476,4.1471,4.1479,4.1478,4.1452,4.1428,4.1443,4.1428,4.1401,4.1422,4.1402,4.1403,4.1428,4.1451,4.1455,4.1459,4.151,4.1521,4.153,0,0,0,0,0,0,4.1516,4.1489,4.1471,4.1498,4.1491,4.147,4.1487,4.1464,4.1464,4.1459,4.1427,4.1424,4.1449,4.1441,4.1419,4.1466,4.1432,4.1437,4.1471,4.148,4.1488,4.149,4.1373,0,0,0,0,0,4.1532,4.154,4.1516,4.1542,4.154,4.1515,4.1517,4.1497,4.1489,4.1486,4.1472,4.1466,4.1471,4.1476,4.1479,4.1513,4.1509,4.1531,4.1539,4.1546,4.155,4.1567,4.1577,4.1475,4.1475,4.1475,0,0,4.1564,4.155,4.1557,4.1553,4.1546,4.1555,4.1512,4.1524,4.1531,4.1488,4.1506,4.1496,4.1487,4.1515,4.1526,4.1508,4.1577,4.1551,4.1556,4.1557,4.1573,4.1582,4.1591,4.1478,4.1477,4.1477,0,0,4.1628,4.1618,4.1639,4.1632,4.1621,4.1604,4.1609,4.1592,4.1583,4.1601,4.1569,4.1577,4.1587,4.1582,4.158,4.1643,4.1618,4.1645,4.1687,4.1705,4.1713,4.172,4.1742,4.175,4.165,4.165,4.165,0,4.1669,4.1682,4.1653,4.1667,4.1666,4.1627,4.1649,4.1644,4.1635,4.1636,4.1616,4.1628,4.1619,4.1644,4.166,4.166,4.1665,4.1647,4.1714,4.172,4.1726,4.1747,4.1756,4.1653,4.1653,4.1652,4.1652,0,4.1734,4.1743,4.1761,4.1753,4.1755,4.1772,4.1747,4.1752,4.1733,4.1718,4.1737,4.1725,4.1726,4.1731,4.1712,4.1754,4.1743,4.1719,4.1684,4.174,4.1759,4.1767,4.1658,4.1657,4.1656,4.1655,0,0,4.1831,4.1807,4.1815,4.181,4.1796,4.1803,4.1819,4.1819,4.1824,4.182,4.1833,4.1842,4.182,4.1819,4.1799,4.1815,4.1865,4.1789,4.1788,4.1803,4.1911,4.1929,4.1939,4.1849,4.185,4.1852,4.1912,0,4.1891,4.1917,4.1892,4.1923,4.1931,4.1895,4.1909,4.1902,4.1889,4.1895,4.1881,4.1888,4.1858,4.1857,4.1871,4.1856,4.1886,4.1852,4.1861,4.1862,4.1864,4.1949,4.1967,4.2025,4.1919,4.192,4.1921,0,4.1964,4.1962,4.1994,4.1978,4.198,4.1994,4.1992,4.1998,4.1989,4.1979,4.1978,4.1954,4.197,4.1936,4.1957,4.1934,4.1937,4.1931,4.1932,4.1932,4.1895,4.195,4.2042,4.2051,4.1933,4.1932,4.1931,0,4.2032,4.2038,4.2058,4.2055,4.2037,4.2047,4.204,4.203,4.2031,4.203,4.2031,4.2032,4.2033,4.2034,4.2012,4.199,4.2036,4.2001,4.2028,4.2029,4.2039,4.2039,4.2133,4.2042,4.2042,4.2042,4.2042,0,4.2101,4.2122,4.2088,4.21,4.2123,4.2094,4.2117,4.2107,4.2098,4.2108,4.2077,4.2087,4.2057,4.2064,4.2047,4.2068,4.2068,4.206,4.2056,4.2063,4.2064,4.2064,4.2059,4.2044,4.2043,4.2043,4.2043,0,4.2181,4.2159,4.2178,4.2159,4.2155,4.2172,4.2156,4.2167,4.2152,4.2165,4.2166,4.2143,4.215,4.2128,4.2132,4.212,4.215,4.2139,4.2153,4.2149,4.2178,4.2175,4.2275,4.2286,4.2188,4.2189,4.219,0,4.2226,4.2241,4.2224,4.2228,4.2222,4.2229,4.2231,4.2204,4.2207,4.2199,4.2211,4.2215,4.2217,4.223,4.2214,4.2217,4.2205,4.224,4.2205,4.2213,4.2206,4.2205,4.2206,4.2247,4.2248,4.2249,4.225,0,4.2309,4.2298,4.2301,4.23,4.2303,4.2301,4.2298,4.2303,4.2274,4.2279,4.2286,4.2287,4.2291,4.2296,4.2295,4.2288,4.2265,4.2261,4.2267,4.2275,4.2282,4.2279,4.2172,4.2259,4.2258,4.2257,4.2257,4.2256,4.2373,4.2384,4.2374,4.2379,4.2373,4.2371,4.238,4.2366,4.2371,4.2371,4.2355,4.2365,4.2357,4.2353,4.2349,4.2357,4.2341,4.2351,4.2353,4.2356,4.236,4.2282,4.2357,4.2357,4.2356,4.2356,4.2356,0,4.2454,4.2445,4.245,4.2446,4.245,4.2427,4.2422,4.2427,4.2436,4.243,4.2432,4.244,4.2445,4.2429,4.2432,4.2441,4.243,4.2443,4.2442,4.2441,4.2375,4.2369,4.2451,4.2451,4.2451,4.2451,4.2451,4.2451,4.2496,4.2515,4.2503,4.2519,4.251,4.2519,4.2518,4.2516,4.2511,4.2521,4.2524,4.2514,4.2505,4.2507,4.251,4.2505,4.2508,4.2524,4.2516,4.2454,4.2445,4.2436,4.243,4.2525,4.2525,4.2581,4.2581,4.2582]}]]